Regional Weather Roundup
Issued by NWS Tiyan, Guam

Current Version | Previous Version | Text Only | Print | Product List | Glossary On
Versions: 1 2 3 4 5 6 7 8 9 10 11 12 13 14 15 16 17 18 19 20 21 22 23 24 25 26 27 28 29 30 31 32 33 34 35 36 37 38 39 40 41 42 43 44 45 46 47 48 49 50
000
ASGM40 PGUM 200112
RWRGUM
WEATHER ROUNDUP FOR THE MARIANAS
NATIONAL WEATHER SERVICE TIYAN GU
1100 AM CHST FRI JAN 20 2017

GUZ001>004-200200-
MARIANA ISLANDS-

CITY           SKY/WX    TMP DP  RH WIND       PRES   REMARKS
GUAM AIRPORT   MOSUNNY   86  72  62 NE21      29.96F HX  92
ANDERSEN AFB   MOSUNNY   81  72  74 E17       29.98F
ROTA AIRPORT   MOSUNNY   81  72  74 E18G25    29.98F
TINIAN AP      MOSUNNY   84  77  79 NE15      29.97F HX  94
SAIPAN AP      MOSUNNY   84  70  61 E16G22    29.98F

$$




USA.gov is the U.S. government's official web portal to all federal, state and local government web resources and services.